Location: Hamilton
(37.7830°S, 175.2830°E)
Time: 09:57:52
(UTC+13:00)

ARGOS - Pass Details

Date: 24 January 2019
Orbit: 821 x 834 km, 98.5° (Epoch: 21 October)

Event Time Altitude Azimuth Distance (km) Brightness Sun altitude
Rises 21:33:03 0° 151° (SSE) 3,387 6.4 -10.2°
Reaches altitude 10° 21:36:03 10° 134° (SE) 2,445 5.5 -10.7°
Maximum altitude 21:40:00 20° 87° (E) 1,811 4.5 -11.3°
Enters shadow 21:42:21 16° 54° (NE) 2,051 4.5 -11.7°
